www.pogodaiklimat.ru

Погода и климат >> Архив погоды >> Южная Африка >> Пеннингтон


ПОГОДА в Пеннингтоне

  • Прогноз погоды в Пеннингтоне
  • Монитор погоды в Пеннингтоне

АРХИВ ПОГОДЫ в Пеннингтоне

Время (UTC), дата Ветер
(напр.,м/с)
 
Видим.   Явления Облачность Т
(С)
Тd
(С)
f
(%)
Тe
(С)
Тes
(С)
Комфортность P
(гПа)
Po
(гПа)
Тmin
(С)
Tmax
(С)
R
(мм)
R24
(мм)
S
(см)
00 14.06 З 3 н/о н/о +12.0 +10.0 88 +11 +11 1032.0 1030.2 +12.0 +19.0 1
03 14.06 СЗ 2 н/о н/о +11.8 +9.5 86 +11 +11 1031.7 1029.9 +11.8 +19.0
06 14.06 СЗ 4 н/о н/о +11.8 +8.4 80 +10 +10 1031.6 1029.8 +10.7 1
09 14.06 СВ 3 н/о н/о +19.3 +10.1 55 +21 +21 комфорт 1031.1 1029.3 +10.7 +19.5
12 14.06 СВ 4 н/о н/о +19.7 +11.3 58 +21 +21 комфорт 1027.9 1026.2 +10.7 +20.0
15 14.06 СВ 3 н/о н/о +17.8 +12.5 71 +18 +18 1028.0 1026.2 +17.8 +20.0
18 14.06 СЗ 2 н/о н/о +15.2 +10.8 75 +15 +15 1028.4 1026.6 +15.2 +20.0
21 14.06 СЗ 2 н/о н/о +14.2 +10.6 79 +14 +14 1027.4 1025.6 +14.2 +20.0
00 15.06 СЗ 2 н/о н/о +14.5 +10.1 75 +14 +14 1025.6 1023.8 +14.1 +20.0
03 15.06 СЗ 2 н/о н/о +10.8 +7.3 79 +9 +9 1024.2 1022.4 +10.8 +20.0
06 15.06 З 1 н/о н/о +12.2 +7.7 74 +12 +12 1024.8 1023.0 +10.1
09 15.06 СВ 4 н/о н/о +19.1 +9.9 55 +20 +20 1024.2 1022.5 +10.1 +19.3
12 15.06 СВ 4 н/о н/о +20.2 +12.5 61 +22 +22 комфорт 1020.6 1018.9 +10.1 +20.4 0.2
15 15.06 С 2 н/о н/о +18.3 +13.2 72 +19 +19 1020.0 1018.3 +18.3 +20.4
18 15.06 СЗ 2 н/о н/о +15.9 +11.5 75 +16 +16 1020.5 1018.7 +15.9 +20.4 0.2
21 15.06 СЗ 2 н/о н/о +13.3 +8.4 72 +13 +13 1021.1 1019.3 +13.3 +20.4
00 16.06 СЗ 1 н/о н/о +12.9 +6.0 63 +13 +13 1021.1 1019.3 +12.9 +20.4 0.2
03 16.06 З 3 н/о н/о +14.2 +2.5 45 +13 +13 1022.3 1020.5 +10.9 +20.4
06 16.06 З 4 н/о н/о +17.9 +4.5 41 +18 +18 1024.6 1022.8 +10.9 0.2
09 16.06 З 3 н/о н/о +23.1 +13.4 54 +26 +26 жарко 1026.2 1024.5 +10.9 +23.2
12 16.06 ЮВ 2 н/о н/о +23.5 +17.3 68 +27 +27 душно 1023.9 1022.2 +10.9 +24.3
15 16.06 СВ 2 н/о н/о +19.6 +15.1 75 +22 +22 комфорт 1022.9 1021.2 +19.6 +24.3
18 16.06 СЗ 2 н/о н/о +17.9 +15.5 86 +19 +19 1023.3 1021.5 +17.6 +24.3
21 16.06 С 2 н/о н/о +17.3 +14.6 84 +18 +18 1023.0 1021.2 +17.2 +24.3
00 17.06 С 2 н/о н/о +15.6 +10.6 72 +16 +16 1021.9 1020.1 +15.4 +24.3
03 17.06 З 1 н/о н/о +11.4 +6.7 73 +11 +11 1021.8 1020.0 +11.4 +24.3
06 17.06 З 3 н/о н/о +13.6 +5.8 59 +13 +13 1023.0 1021.2 +10.6
09 17.06 Ю 1 н/о н/о +20.6 +8.7 46 +23 +23 комфорт 1023.8 1022.1 +10.6 +20.6
12 17.06 ЮВ 1 н/о н/о +22.1 +10.7 48 +24 +24 комфорт 1021.7 1020.0 +10.6 +22.6
15 17.06 З 2 н/о н/о +17.2 +9.7 61 +18 +18 1021.5 1019.7 +17.2 +22.9
18 17.06 СЗ 4 н/о н/о +15.7 +9.6 67 +15 +15 1022.5 1020.7 +15.7 +22.9
21 17.06 В 1 н/о н/о +11.0 +5.5 69 +11 +11 1022.8 1021.0 +10.9 +22.9
00 18.06 С 1 н/о н/о +12.0 +5.8 66 +12 +12 1023.4 1021.6 +10.9 +22.9
03 18.06 СВ 1 н/о н/о +12.5 +3.5 54 +13 +13 1023.9 1022.1 +10.9 +22.9
06 18.06 З 4 н/о н/о +17.6 +2.8 37 +17 +17 1025.7 1023.9 +10.9
09 18.06 ЮЗ 3 н/о н/о +23.8 +7.2 34 +24 +24 комфорт 1028.2 1026.5 +10.9 +23.8
12 18.06 Ю 6 н/о н/о +22.8 +16.2 66 +27 +27 душно 1026.9 1025.2 +10.9 +24.3
15 18.06 Ю 5 н/о н/о +20.6 +15.8 74 +24 +24 комфорт 1027.6 1025.9 +20.6 +24.3
18 18.06 З 2 н/о н/о +18.1 +14.4 79 +19 +19 1029.3 1027.5 +18.1 +24.3
21 18.06 З 3 н/о н/о +17.7 +14.8 83 +18 +18 1030.6 1028.8 +17.4 +24.3
00 19.06 СЗ 4 н/о н/о +16.8 +14.1 84 +16 +16 1029.7 1027.9 +16.8 +24.3
03 19.06 СЗ 3 н/о н/о +15.5 +13.1 86 +15 +15 1028.9 1027.1 +15.4 +24.3
06 19.06 СЗ 4 н/о н/о +15.6 +12.9 84 +15 +15 1030.1 1028.3 +14.6
09 19.06 С 2 н/о н/о +22.1 +14.6 62 +25 +25 комфорт 1029.9 1028.2 +14.6 +22.1
12 19.06 СВ 4 н/о н/о +21.3 +14.5 65 +24 +24 комфорт 1027.4 1025.7 +14.6 +23.5
15 19.06 СВ 4 н/о н/о +19.3 +14.4 73 +21 +21 комфорт 1027.3 1025.6 +19.3 +23.5
18 19.06 С 2 н/о н/о +17.6 +13.5 77 +18 +18 1028.1 1026.3 +17.4 +23.5
21 19.06 С 2 н/о н/о +17.8 +12.9 73 +18 +18 1028.0 1026.2 +17.0 +23.5
00 20.06 СЗ 2 н/о н/о +14.7 +10.9 78 +15 +15 1027.2 1025.4 +14.7 +23.5
03 20.06 З 3 н/о н/о +13.1 +10.3 83 +12 +12 1026.4 1024.6 +13.1 +23.5
09 20.06 СВ 3 н/о н/о +20.7 +12.2 58 +23 +23 комфорт 1027.9 1026.2 +12.3 +20.7
12 20.06 СВ 5 н/о н/о +21.3 +13.3 60 +24 +24 комфорт 1025.3 1023.6 +12.3 +21.6
15 20.06 СВ 3 н/о н/о +19.9 +14.5 71 +22 +22 комфорт 1024.5 1022.8 +19.9 +21.6
18 20.06 С 2 н/о н/о +18.2 +14.1 77 +19 +19 1024.8 1023.0 +18.0 +21.6

 

Местоположение метеостанции Пеннингтон (Южная Африка): широта -30.39 долгота 30.69 высота над уровнем моря 15 м.

В архиве по умолчанию представлена погода в Пеннингтоне за последнюю неделю. Архивные данные за месяц целиком и за предыдущие месяцы, начиная с января 2011 года, Вы можете получить, выбрав интересующий диапазон дат из раскрывающегося списка и нажав кнопку "Ввод!".


*Определитесь, кто Вы:
робот инопланетянин человек

Внимание! Время в таблицах - всемирное. Для получения местного времени необходимо прибавить поправку, которая равна 2 ч.

Смотрите также архив погоды в соседних городах и на ближайших метеорологических станциях:

Погода в Дурбане (Южная Африка) (54 км)
Погода в Паддоке (Южная Африка) (57 км)
Погода в Маргите (Южная Африка) (62 км)
Погода в Иксопо (Южная Африка) (65 км)
Погода в Аэропорту Вирджиния (Южная Африка) (78 км)
Погода в Маунт Эджком (Южная Африка) (84 км)
Погода в Порт-Эдварде (Южная Африка) (87 км)
Погода в Питермарицбург аэропорту (Южная Африка) (87 км)
Погода в Питермарицбурге (Южная Африка) (89 км)
Погода в Аэропорту Кинг Шака (Южная Африка) (97 км)

Пояснения к столбцам:

Ветер - указаны скорость ветра в м/с - средняя за 10 мин, порывы в срок и между сроками (в фигурных скобках) и направление, откуда дует ветер: С - северный, СВ - северо-восточный, В - восточный, ЮВ - юго-восточный, Ю - южный, ЮЗ - юго-западный, З - западный, СЗ - северо-западный.
Видимость - горизонтальная дальность видимости в метрах или километрах. При видимости от 1 до 10 км при отсутствии осадков обычно наблюдается дымка, при ухудшении видимости до 1 км и менее - туман. В сухую погоду видимость может ухудшаться дымом, пылью или мглою.
Явления - указаны атмосферные явления, наблюдавшиеся в срок или в последний час перед сроком; фигурными скобками обозначены явления, наблюдавшиеся между сроками (за 1-3 часа до срока); квадратными скобками обозначены град или гололедные отложения с указанием их диаметра в мм.
Облачность - указаны через наклонную черту общая и нижняя облачность в баллах и высота нижней границы облаков в метрах; квадратными скобками обозначены формы облаков: Ci - перистые, Cs - перисто-слоистые, Cc - перисто-кучевые, Ac - высококучевые, As - высокослоистые, Sc - слоисто-кучевые, Ns - слоисто-дождевые, Cu - кучевые, Cb - кучево-дождевые. Подробнее классификацию облаков см. в Атласе облаков (PDF).
T - Температура воздуха - температура, измеренная на высоте 2 м над землей.
Td - Температура точки росы - температура, при понижении до которой содержащийся в воздухе водяной пар достигнет насыщения.
f - Относительная влажность воздуха - влажноcть воздуха, измеренная на высоте 2 м над землей.
Te - Эффективная температура - температура, которую ощущает одетый по сезону человек в тени. Характеристика душности погоды. При расчете учитывается влияние влажности воздуха и скорости ветра на теплоощущения человека.
Tes - Эффективная температура на солнце - температура, которую ощущает человек, с поправкой на солнечный нагрев. Характеристика знойности погоды. Зависит от высоты солнца над горизонтом, облачности и скорости ветра. Ночью, в пасмурную погоду, а также при ветре 12 м/с и более поправка равна нулю.
P - Атмосферное давление - приведенное к уровню моря атмосферное давление.
Po - Атмосферное давление - измеренное на уровне метеостанции атмосферное давление.
Tmin - Минимальная температура - минимум температуры воздуха на высоте 2 м над землей.
Tmax - Максимальная температура - максимум температуры воздуха на высоте 2 м над землей.
R - Количество осадков - Количество выпавших осадков за период времени, мм. При наведении курсора мыши на число - период времени, за который выпало указанное количество осадков.
R24 - Количество осадков - Количество выпавших осадков за 24 часа, мм.
S - Снежный покров - Высота снежного покрова, см. При наведении курсора мыши на число - состояние снежного покрова и степень покрытия местности в баллах.